SYRACUSE 3B

Last updated on Thu Oct 30 2025 00:02:47 GMT+0000 (Coordinated Universal Time)

1 29273U 06033B 25302.32885697 .00000033 00000+0 00000+0 0 9999 2 29273 2.3032 82.9620 0004281 143.3019 293.3315 1.00274614 70365
UTC large
Height (km)
Speed (km/s)
/
Latitude / Longitude
Inclination (degrees)
Orbital Period (minutes)
Azimuth
Elevation
Range (km)
Doppler Factor

Next 0 passes for location: London (51.5072 / 0.1276)

Sorry there are no passes over London.